Location: Fort Wayne
(41.1310°N, 85.1290°W)
Time: 08:41:30
(UTC-04:00)

COSMOS 2406 - Visible Passes

Search period start: 25 April 2018 00:00
Search period end: 05 May 2018 00:00
Orbit: 842 x 865 km, 71.0° (Epoch: 24 April)

Date Brightness Start Highest point End Pass type
(mag) Time Alt. Az. Time Alt. Az. Time Alt. Az.
25 Apr 5.3 00:34:18 16° NE 00:34:18 16° NE 00:35:41 10° NE visible
25 Apr 4.5 02:16:20 35° NNW 02:16:20 35° NNW 02:20:20 10° N visible
26 Apr 5.3 00:22:46 17° NE 00:22:46 17° NE 00:24:17 10° NE visible
26 Apr 4.5 02:04:49 35° NNW 02:04:49 35° NNW 02:08:54 10° N visible
27 Apr 5.2 00:11:12 18° NE 00:11:12 18° NE 00:12:51 10° NE visible
27 Apr 4.5 01:53:13 36° NNW 01:53:13 36° NNW 01:57:27 10° N visible
27 Apr 5.1 23:59:34 19° ENE 23:59:34 19° ENE 00:01:26 10° NE visible
28 Apr 4.4 01:41:36 36° NW 01:41:36 36° NW 01:46:00 10° N visible
28 Apr 4.9 23:47:54 20° ENE 23:47:54 20° ENE 23:50:01 10° NE visible
29 Apr 4.4 01:29:55 37° NW 01:29:55 37° NW 01:34:34 10° N visible
29 Apr 4.8 23:36:09 22° ENE 23:36:09 22° ENE 23:38:35 10° NE visible
30 Apr 4.4 01:18:10 37° NW 01:18:10 37° NW 01:23:06 10° N visible
30 Apr 4.6 23:24:20 24° ENE 23:24:20 24° ENE 23:27:10 10° NE visible
01 May 4.3 01:06:20 37° WNW 01:06:22 37° WNW 01:11:39 10° N visible
01 May 4.4 23:12:25 27° ENE 23:12:25 27° ENE 23:15:44 10° NE visible
02 May 4.3 00:54:25 36° WNW 00:54:56 37° WNW 01:00:13 10° N visible
02 May 4.2 23:00:22 30° E 23:00:22 30° E 23:04:19 10° NE visible
03 May 4.4 00:42:22 33° W 00:43:29 36° WNW 00:48:46 10° N visible
03 May 3.9 22:48:11 33° E 22:48:11 33° E 22:52:53 10° NE visible
04 May 4.5 00:30:10 29° W 00:32:03 36° WNW 00:37:19 10° N visible
04 May 3.8 22:35:47 33° ESE 22:36:23 34° ESE 22:41:27 10° NE visible
